Regional Weather Roundup
Issued by NWS

Home | Current Version | Previous Version | Graphics & Text | Print | Product List | Glossary On
Versions: 1 2 3 4 5 6 7 8 9 10 11 12 13 14 15 16 17 18 19 20 21 22 23 24 25 26 27 28 29 30 31 32 33 34 35 36 37 38 39 40 41 42 43 44 45 46 47 48 49 50
000
ASUS45 KBOI 240910
RWRID
WEATHER ROUNDUP FOR IDAHO
NATIONAL WEATHER SERVICE BOISE ID
300 AM MDT THU JUL 24 2014

NOTE: "FAIR" INDICATES FEW OR NO CLOUDS BELOW 12000 FEET
WITH NO SIGNIFICANT WEATHER AND/OR OBSTRUCTIONS TO VISIBILITY

IDZ012-014-241000-
SOUTHWEST IDAHO


CITY           SKY/WX    TMP DP  RH WIND       PRES   REMARKS
BOISE          CLEAR     65  48  54 NW13      30.03R
CALDWELL       CLEAR     63  43  48 NW12      30.07R
MOUNTAIN HOME  CLEAR     67  48  49 NW21      30.01R
$$

IDZ016-017-241000-
SOUTHCENTRAL IDAHO


CITY           SKY/WX    TMP DP  RH WIND       PRES   REMARKS
BURLEY         PTCLDY    68  38  33 W13       30.02R
JEROME         CLEAR     68  38  33 SW9       30.02R
TWIN FALLS     CLEAR     71  32  23 SW14      30.04R
$$

IDZ019>023-241000-
SOUTHEAST IDAHO


CITY           SKY/WX    TMP DP  RH WIND       PRES   REMARKS
IDAHO FALLS    PTCLDY    66  45  46 SW9       30.00S
POCATELLO      CLEAR     72  40  31 S13       30.02R
REXBURG        PTCLDY    68  40  35 S7        29.99S
$$

IDZ006-010-011-018-031-032-241000-
CENTRAL IDAHO MOUNTAINS


CITY           SKY/WX    TMP DP  RH WIND       PRES   REMARKS
MCCALL         CLEAR     52  44  74 VRB3      30.10R
HAILEY         CLEAR     59  41  51 NW8       30.08S
STANLEY          N/A     48  35  60 VRB3      30.15R
SALMON         CLEAR     57  45  62 CALM      29.91F
CHALLIS        CLEAR     58  39  49 W3        30.00S
$$

IDZ002-004-006-007-026-241000-
NORTHERN IDAHO


CITY           SKY/WX    TMP DP  RH WIND       PRES   REMARKS
LEWISTON       CLOUDY    63  41  44 W14G21    30.08R
LOWELL           N/A     66  50  56 CALM      30.08S
COEUR D`ALENE  MOCLDY    54  52  94 CALM      30.04F
MULLAN PASS    CLOUDY    43  42  97 VRB3      30.13F
$$


USA.gov is the U.S. government's official web portal to all federal, state and local government web resources and services.